timestamp,wind_dir_avg,wind_spd_max_dir,wind_spd_avg,wind_spd_gust,battery_voltage,lat,long
2018-04-23 00:00:00+00:00,266.0,264.0,4.64,5.37,,47.59359,-54.27349
2018-04-23 00:10:00+00:00,270.0,269.0,5.48,6.06,,47.59359,-54.27349
2018-04-23 00:20:00+00:00,268.0,269.0,4.93,5.39,,47.59359,-54.27349
2018-04-23 00:30:00+00:00,268.0,266.0,5.02,5.5,,47.59359,-54.27349
2018-04-23 00:40:00+00:00,273.0,274.0,5.13,5.66,,47.59359,-54.27349
2018-04-23 00:50:00+00:00,277.0,280.0,4.25,4.62,,47.59359,-54.27349
2018-04-23 01:00:00+00:00,304.0,308.0,3.58,4.2,,47.59359,-54.27349
2018-04-23 01:10:00+00:00,320.0,319.0,4.59,5.32,,47.59359,-54.27349
2018-04-23 01:20:00+00:00,28.0,32.0,7.83,8.54,,47.59359,-54.27349
2018-04-23 01:30:00+00:00,34.0,34.0,7.7,8.42,,47.59359,-54.27349
2018-04-23 01:40:00+00:00,32.0,33.0,6.54,7.82,,47.59359,-54.27349
2018-04-23 01:50:00+00:00,33.0,32.0,8.49,9.71,,47.59359,-54.27349
2018-04-23 02:00:00+00:00,34.0,32.0,10.15,11.16,,47.59359,-54.27349
2018-04-23 02:10:00+00:00,33.0,33.0,9.01,10.45,,47.59359,-54.27349
2018-04-23 02:20:00+00:00,42.0,44.0,10.33,11.48,,47.59359,-54.27349
2018-04-23 02:30:00+00:00,47.0,46.0,9.17,10.62,,47.59359,-54.27349
2018-04-23 02:40:00+00:00,47.0,52.0,9.01,10.33,,47.59359,-54.27349
2018-04-23 02:50:00+00:00,44.0,41.0,8.35,9.06,,47.59359,-54.27349
2018-04-23 03:00:00+00:00,51.0,50.0,8.39,9.43,,47.59359,-54.27349
2018-04-23 03:10:00+00:00,61.0,66.0,8.25,9.62,,47.59359,-54.27349
2018-04-23 03:20:00+00:00,56.0,58.0,7.71,8.6,,47.59359,-54.27349
2018-04-23 03:30:00+00:00,50.0,47.0,7.06,7.57,,47.59359,-54.27349
2018-04-23 03:40:00+00:00,46.0,48.0,6.98,7.51,,47.59359,-54.27349
2018-04-23 03:50:00+00:00,48.0,42.0,6.49,7.14,,47.59359,-54.27349
2018-04-23 04:00:00+00:00,55.0,54.0,5.17,6.19,,47.59359,-54.27349
2018-04-23 04:10:00+00:00,53.0,54.0,6.06,6.5,,47.59359,-54.27349
2018-04-23 04:20:00+00:00,55.0,55.0,6.63,7.25,,47.59359,-54.27349
2018-04-23 04:30:00+00:00,50.0,53.0,6.51,7.03,,47.59359,-54.27349
2018-04-23 04:40:00+00:00,36.0,43.0,5.43,6.11,,47.59359,-54.27349
2018-04-23 04:50:00+00:00,35.0,37.0,5.67,6.79,,47.59359,-54.27349
2018-04-23 05:00:00+00:00,37.0,35.0,6.05,6.7,,47.59359,-54.27349
2018-04-23 05:10:00+00:00,36.0,36.0,5.44,6.1,,47.59359,-54.27349
2018-04-23 05:20:00+00:00,33.0,29.0,5.15,5.75,,47.59359,-54.27349
2018-04-23 05:30:00+00:00,30.0,24.0,5.61,6.31,,47.59359,-54.27349
2018-04-23 05:40:00+00:00,36.0,36.0,4.88,5.29,,47.59359,-54.27349
2018-04-23 05:50:00+00:00,32.0,31.0,4.33,4.72,,47.59359,-54.27349
2018-04-23 06:00:00+00:00,38.0,38.0,4.3,4.71,,47.59359,-54.27349
2018-04-23 06:10:00+00:00,39.0,39.0,4.08,4.51,,47.59359,-54.27349
2018-04-23 06:20:00+00:00,34.0,33.0,4.74,5.14,,47.59359,-54.27349
2018-04-23 06:30:00+00:00,50.0,45.0,4.12,4.49,,47.59359,-54.27349
2018-04-23 06:40:00+00:00,42.0,45.0,3.49,3.82,,47.59359,-54.27349
2018-04-23 06:50:00+00:00,47.0,48.0,2.96,3.24,,47.59359,-54.27349
2018-04-23 07:00:00+00:00,1.0,359.0,3.29,3.71,,47.59359,-54.27349
2018-04-23 07:10:00+00:00,7.0,3.0,3.48,3.84,,47.59359,-54.27349
2018-04-23 07:20:00+00:00,13.0,13.0,2.99,3.21,,47.59359,-54.27349
2018-04-23 07:30:00+00:00,358.0,358.0,3.12,3.39,,47.59359,-54.27349
2018-04-23 07:40:00+00:00,354.0,354.0,2.83,3.09,,47.59359,-54.27349
2018-04-23 07:50:00+00:00,1.0,3.0,2.8,3.05,,47.59359,-54.27349
2018-04-23 08:00:00+00:00,357.0,356.0,2.53,2.76,,47.59359,-54.27349
2018-04-23 08:10:00+00:00,356.0,358.0,2.9,3.16,,47.59359,-54.27349
2018-04-23 08:20:00+00:00,350.0,353.0,3.54,3.83,,47.59359,-54.27349
2018-04-23 08:30:00+00:00,356.0,358.0,3.61,3.88,,47.59359,-54.27349
2018-04-23 08:40:00+00:00,345.0,342.0,3.83,4.25,,47.59359,-54.27349
2018-04-23 08:50:00+00:00,328.0,331.0,3.06,3.39,,47.59359,-54.27349
2018-04-23 09:00:00+00:00,330.0,329.0,2.71,3.14,,47.59359,-54.27349
2018-04-23 09:10:00+00:00,332.0,335.0,3.58,3.99,,47.59359,-54.27349
2018-04-23 09:20:00+00:00,333.0,330.0,3.51,3.74,,47.59359,-54.27349
2018-04-23 09:30:00+00:00,338.0,340.0,3.72,4.06,,47.59359,-54.27349
2018-04-23 09:40:00+00:00,334.0,336.0,3.36,3.64,,47.59359,-54.27349
2018-04-23 09:50:00+00:00,326.0,326.0,2.99,3.28,,47.59359,-54.27349
2018-04-23 10:00:00+00:00,329.0,325.0,3.3,3.85,,47.59359,-54.27349
2018-04-23 10:10:00+00:00,315.0,316.0,3.76,4.25,,47.59359,-54.27349
2018-04-23 10:20:00+00:00,316.0,314.0,3.18,3.46,,47.59359,-54.27349
2018-04-23 10:30:00+00:00,315.0,318.0,2.12,2.43,,47.59359,-54.27349
2018-04-23 10:40:00+00:00,313.0,315.0,1.84,2.03,,47.59359,-54.27349
2018-04-23 10:50:00+00:00,295.0,295.0,1.55,1.86,,47.59359,-54.27349
2018-04-23 11:00:00+00:00,294.0,292.0,1.21,1.46,,47.59359,-54.27349
2018-04-23 11:10:00+00:00,260.0,248.0,1.39,1.68,,47.59359,-54.27349
2018-04-23 11:20:00+00:00,301.0,296.0,1.91,2.21,,47.59359,-54.27349
2018-04-23 11:30:00+00:00,268.0,275.0,2.16,2.43,,47.59359,-54.27349
2018-04-23 11:40:00+00:00,222.0,226.0,2.82,3.35,,47.59359,-54.27349
2018-04-23 11:50:00+00:00,214.0,218.0,2.92,3.33,,47.59359,-54.27349
2018-04-23 12:00:00+00:00,222.0,224.0,3.21,3.47,,47.59359,-54.27349
2018-04-23 12:10:00+00:00,218.0,224.0,3.4,3.6,,47.59359,-54.27349
2018-04-23 12:20:00+00:00,217.0,223.0,3.3,3.53,,47.59359,-54.27349
2018-04-23 12:30:00+00:00,207.0,210.0,3.67,3.96,,47.59359,-54.27349
2018-04-23 12:40:00+00:00,204.0,200.0,4.71,5.21,,47.59359,-54.27349
2018-04-23 12:50:00+00:00,200.0,198.0,5.36,5.88,,47.59359,-54.27349
2018-04-23 13:00:00+00:00,204.0,206.0,6.0,6.43,,47.59359,-54.27349
2018-04-23 13:10:00+00:00,208.0,207.0,6.27,6.71,,47.59359,-54.27349
2018-04-23 13:20:00+00:00,217.0,218.0,7.3,7.9,,47.59359,-54.27349
2018-04-23 13:30:00+00:00,220.0,221.0,8.2,8.72,,47.59359,-54.27349
2018-04-23 13:40:00+00:00,218.0,220.0,7.52,8.08,,47.59359,-54.27349
2018-04-23 13:50:00+00:00,218.0,220.0,7.77,8.52,,47.59359,-54.27349
2018-04-23 14:00:00+00:00,221.0,221.0,8.65,9.76,,47.59359,-54.27349
2018-04-23 14:10:00+00:00,222.0,225.0,9.6,10.6,,47.59359,-54.27349
2018-04-23 14:20:00+00:00,220.0,219.0,8.88,9.82,,47.59359,-54.27349
2018-04-23 14:30:00+00:00,219.0,218.0,8.9,9.82,,47.59359,-54.27349
2018-04-23 14:40:00+00:00,218.0,224.0,8.68,9.78,,47.59359,-54.27349
2018-04-23 14:50:00+00:00,219.0,217.0,8.64,9.99,,47.59359,-54.27349
2018-04-23 15:00:00+00:00,222.0,223.0,8.71,10.28,,47.59359,-54.27349
2018-04-23 15:10:00+00:00,223.0,221.0,9.38,11.12,,47.59359,-54.27349
2018-04-23 15:20:00+00:00,224.0,221.0,9.63,10.67,,47.59359,-54.27349
2018-04-23 15:30:00+00:00,220.0,224.0,10.32,11.97,,47.59359,-54.27349
2018-04-23 15:40:00+00:00,223.0,224.0,9.52,10.55,,47.59359,-54.27349
2018-04-23 15:50:00+00:00,227.0,229.0,9.85,11.11,,47.59359,-54.27349
2018-04-23 16:00:00+00:00,224.0,223.0,10.45,12.08,,47.59359,-54.27349
2018-04-23 16:10:00+00:00,220.0,220.0,9.64,11.2,,47.59359,-54.27349
2018-04-23 16:20:00+00:00,216.0,218.0,8.96,10.23,,47.59359,-54.27349
2018-04-23 16:30:00+00:00,219.0,214.0,8.67,9.94,,47.59359,-54.27349
2018-04-23 16:40:00+00:00,219.0,220.0,10.09,11.44,,47.59359,-54.27349
2018-04-23 16:50:00+00:00,220.0,219.0,8.87,10.26,,47.59359,-54.27349
2018-04-23 17:00:00+00:00,220.0,223.0,10.08,11.03,,47.59359,-54.27349
2018-04-23 17:10:00+00:00,220.0,221.0,9.73,11.13,,47.59359,-54.27349
2018-04-23 17:20:00+00:00,223.0,222.0,9.46,10.39,,47.59359,-54.27349
2018-04-23 17:30:00+00:00,220.0,223.0,9.74,10.83,,47.59359,-54.27349
2018-04-23 17:40:00+00:00,222.0,223.0,10.16,11.23,,47.59359,-54.27349
2018-04-23 17:50:00+00:00,219.0,221.0,9.39,10.39,,47.59359,-54.27349
2018-04-23 18:00:00+00:00,220.0,220.0,9.42,11.17,,47.59359,-54.27349
2018-04-23 18:10:00+00:00,221.0,224.0,9.97,11.32,,47.59359,-54.27349
2018-04-23 18:20:00+00:00,220.0,221.0,10.47,11.36,,47.59359,-54.27349
2018-04-23 18:30:00+00:00,222.0,216.0,10.24,11.55,,47.59359,-54.27349
2018-04-23 18:40:00+00:00,216.0,216.0,10.19,11.43,,47.59359,-54.27349
2018-04-23 18:50:00+00:00,219.0,219.0,10.11,11.7,,47.59359,-54.27349
2018-04-23 19:00:00+00:00,218.0,216.0,10.02,11.35,,47.59359,-54.27349
2018-04-23 19:10:00+00:00,220.0,217.0,10.01,10.88,,47.59359,-54.27349
2018-04-23 19:20:00+00:00,220.0,219.0,9.88,11.2,,47.59359,-54.27349
2018-04-23 19:30:00+00:00,219.0,216.0,9.89,10.73,,47.59359,-54.27349
2018-04-23 19:40:00+00:00,220.0,217.0,9.19,10.01,,47.59359,-54.27349
2018-04-23 19:50:00+00:00,219.0,218.0,8.15,9.06,,47.59359,-54.27349
2018-04-23 20:00:00+00:00,223.0,224.0,7.35,8.47,,47.59359,-54.27349
2018-04-23 20:10:00+00:00,228.0,230.0,7.67,8.53,,47.59359,-54.27349
2018-04-23 20:20:00+00:00,226.0,228.0,7.8,8.8,,47.59359,-54.27349
2018-04-23 20:30:00+00:00,226.0,226.0,6.71,7.83,,47.59359,-54.27349
2018-04-23 20:40:00+00:00,228.0,229.0,6.37,7.16,,47.59359,-54.27349
2018-04-23 20:50:00+00:00,226.0,223.0,6.12,6.68,,47.59359,-54.27349
2018-04-23 21:00:00+00:00,250.0,248.0,4.22,5.87,,47.59359,-54.27349
2018-04-23 21:10:00+00:00,291.0,288.0,4.76,5.61,,47.59359,-54.27349
2018-04-23 21:20:00+00:00,288.0,290.0,7.27,7.97,,47.59359,-54.27349
2018-04-23 21:30:00+00:00,287.0,285.0,6.95,7.93,,47.59359,-54.27349
2018-04-23 21:40:00+00:00,293.0,297.0,8.15,8.54,,47.59359,-54.27349
2018-04-23 21:50:00+00:00,277.0,279.0,4.48,5.16,,47.59359,-54.27349
2018-04-23 22:00:00+00:00,273.0,275.0,5.35,5.69,,47.59359,-54.27349
2018-04-23 22:10:00+00:00,279.0,280.0,5.16,5.82,,47.59359,-54.27349
2018-04-23 22:20:00+00:00,293.0,294.0,6.2,6.76,,47.59359,-54.27349
2018-04-23 22:30:00+00:00,284.0,286.0,6.39,6.94,,47.59359,-54.27349
2018-04-23 22:40:00+00:00,284.0,284.0,4.66,4.88,,47.59359,-54.27349
2018-04-23 22:50:00+00:00,282.0,284.0,3.67,4.22,,47.59359,-54.27349
2018-04-23 23:00:00+00:00,258.0,258.0,2.46,2.77,,47.59359,-54.27349
2018-04-23 23:10:00+00:00,277.0,280.0,2.83,3.12,,47.59359,-54.27349
2018-04-23 23:20:00+00:00,254.0,253.0,3.36,3.67,,47.59359,-54.27349
2018-04-23 23:30:00+00:00,276.0,283.0,3.23,3.68,,47.59359,-54.27349
2018-04-23 23:40:00+00:00,273.0,277.0,3.16,3.74,,47.59359,-54.27349
2018-04-23 23:50:00+00:00,276.0,275.0,3.76,4.45,,47.59359,-54.27349
